Location: Pasadena, ca
(34.1243°N, 118.1037°W)
Time: 23:51:25
(UTC-07:00)

Envisat - Pass Details

Date: 09 October 2017
Orbit: 764 x 766 km, 98.2° (Epoch: 20 October)

Event Time Altitude Azimuth Distance (km) Brightness Sun altitude
Exits shadow 22:05:06 10° 303° (WNW) 2,302 6.0 -45.1°
Drops below altitude 10° 22:05:12 10° 304° (NW) 2,327 6.1 -45.1°
Sets 22:08:23 0° 326° (NW) 3,235 6.9 -45.7°
